All Spectrum Aviation - Van Nuys Airport - KVNY

HOME

Van Nuys Tower Recordings

Condor Squadron KVNY Webcam

Visit our Electronics Store

2015/09/03 22:51 KVNY 032251Z 21006KT 10SM CLR 26/12 A2983 RMK AO2 SLP091 T02560122
LATEST VAN NUYS ATIS IN MP3!
Older ATIS Recordings

Condor Squadron KVNY Webcam
Click to view larger images and timelapse / youtube videos!

HOME

Van Nuys Tower Recordings

Condor Squadron KVNY Webcam

Visit our Electronics Store